Wind_Speed
29 30 31 31 31 34 35 36 37 35 35 35 37 39 40 42 44 46 49 51 53 56 59 61 63 66 68 71 73 76 78 80 82 83 84 84 83 83 82 81 81 80 78 76
30 32 34 34 33 35 36 37 37 38 37 38 39 40 43 45 47 50 52 54 57 60 62 65 67 70 72 74 76 79 81 82 83 83 83 83 82 82 81 79 77 75 73 71
33 33 36 35 34 35 36 37 38 38 39 39 41 43 46 48 50 52 55 57 60 63 66 68 71 73 75 77 79 81 82 83 83 83 82 82 81 80 77 75 72 70 67 65
37 36 37 36 35 35 37 37 38 39 40 42 44 46 49 51 53 55 58 61 63 66 69 71 74 75 77 79 80 82 82 82 82 82 82 80 78 75 72 69 67 64 61 59
39 39 39 36 36 37 38 39 38 40 42 44 46 48 51 54 56 59 61 64 67 70 72 74 75 77 79 80 82 82 82 82 81 81 79 76 73 69 67 64 61 59 57 55
40 42 41 38 37 38 40 41 40 42 44 46 49 51 53 56 58 61 64 67 70 72 74 75 77 79 80 82 83 83 82 81 79 77 75 72 68 65 63 60 57 55 53 51
40 42 41 40 41 41 42 43 44 45 47 49 52 54 56 58 61 64 67 70 72 74 75 77 79 80 82 82 82 82 80 78 76 73 70 67 65 62 60 57 54 52 51 49
40 41 42 42 43 43 44 45 47 48 50 53 55 57 59 62 65 68 70 72 74 75 76 78 80 81 82 81 81 79 77 75 71 68 65 63 61 59 56 54 52 50 48 46
41 41 42 43 44 45 47 48 49 51 54 56 58 60 63 65 68 70 72 73 75 76 77 78 80 81 81 80 79 77 74 70 67 64 62 60 58 56 53 51 50 48 46 44
41 42 44 45 46 48 49 50 52 54 57 59 61 63 66 68 70 71 73 74 76 78 79 79 79 79 79 78 77 74 71 67 64 61 58 56 54 52 51 49 48 46 44 43
43 44 45 47 48 49 51 53 55 57 59 61 63 66 68 70 71 73 74 76 77 79 80 79 79 78 76 75 74 71 67 64 61 59 56 53 50 49 48 46 46 45 44 43
44 45 47 48 50 51 53 55 57 59 61 63 66 68 70 71 72 74 76 77 78 79 79 78 77 75 74 73 71 69 65 62 59 56 53 51 48 45 45 45 44 43 43 43
46 47 48 50 51 53 55 57 59 61 63 65 67 69 71 72 73 75 76 78 78 78 78 77 75 73 71 70 68 65 62 59 56 53 51 49 47 44 42 40 40 40 41 41
47 48 50 51 53 55 57 59 61 63 65 67 69 71 72 74 75 76 77 77 78 77 76 75 73 71 69 67 65 62 58 55 53 51 48 46 44 43 41 39 37 36 38 39
47 49 51 53 55 57 59 61 63 65 67 68 70 71 73 75 75 76 76 77 77 76 74 72 70 68 66 65 62 58 55 52 49 47 45 43 42 41 40 38 37 37 36 36
50 52 54 55 57 59 61 63 65 66 68 70 71 72 74 75 75 76 76 76 75 73 72 70 68 66 64 62 58 54 50 48 46 45 43 41 40 39 38 36 36 36 36 35
52 54 55 56 58 60 63 65 66 68 69 71 72 73 74 75 75 75 74 73 72 71 70 68 66 63 60 57 53 50 47 44 44 43 41 39 38 37 36 35 35 35 34 34
54 55 57 59 61 63 64 66 68 69 71 72 73 74 74 75 75 74 73 72 70 68 67 65 62 59 55 52 49 46 44 43 41 40 38 36 36 35 35 35 34 34 33 33
55 57 58 60 62 64 66 67 69 71 72 73 74 74 74 75 74 73 72 70 68 65 62 60 57 54 50 48 46 44 42 41 39 37 36 35 35 35 34 34 34 33 32 31
57 58 60 62 64 66 67 69 70 71 72 74 74 74 74 74 73 72 69 67 65 63 60 56 53 49 46 44 42 41 40 38 37 35 34 34 34 33 33 33 33 32 31 30
58 60 62 64 65 67 69 70 72 72 73 74 74 74 74 72 71 69 66 63 60 58 55 52 49 46 43 41 40 39 37 36 35 33 32 32 32 32 32 32 32 31 29 29
60 62 64 65 67 68 70 71 72 73 74 74 73 73 72 70 67 65 62 61 57 54 51 48 46 43 40 38 37 36 34 34 33 32 31 31 31 30 30 30 30 29 28 28
62 64 66 67 69 70 71 72 73 73 73 72 71 70 69 67 64 62 58 55 53 50 47 44 42 39 37 36 34 33 32 32 31 31 30 29 29 29 29 29 29 28 28 27
64 65 67 69 71 71 72 72 72 71 71 70 68 67 66 63 60 57 55 52 48 46 44 41 38 36 35 33 32 31 31 30 30 29 28 28 27 28 28 28 28 28 27 26
66 68 69 70 71 71 72 71 70 69 68 66 65 63 62 60 57 53 50 47 45 43 40 37 36 34 33 31 31 30 30 29 29 28 27 27 26 27 27 28 28 27 27 26
67 69 69 70 71 71 70 70 68 66 65 63 61 59 57 55 52 49 46 44 42 40 37 35 33 32 31 30 30 29 28 28 27 26 25 25 25 25 26 27 27 27 25 24
67 68 69 69 68 68 68 67 65 64 62 60 57 54 52 50 47 45 43 41 39 37 35 33 31 30 29 29 28 27 27 26 25 24 24 24 24 24 25 26 26 25 24 23
Wind_Direction
280 281 283 285 288 290 291 293 294 296 294 293 292 294 295 296 298 299 301 302 304 305 305 306 306 306 306 307 307 306 306 306 306 306 306 305 304 303 303 302 301 299 298 296
279 281 284 287 289 289 290 291 293 294 294 293 293 294 295 297 298 300 301 303 304 305 306 306 306 307 307 307 307 307 307 308 308 307 307 306 305 305 304 303 302 301 299 298
281 282 284 287 289 289 290 290 291 292 293 292 293 294 296 297 299 300 302 303 304 305 306 307 307 308 308 308 308 309 309 309 309 308 308 308 307 307 306 305 303 302 301 300
284 284 285 290 290 290 289 290 292 292 292 293 294 296 297 298 300 301 303 304 305 306 307 307 308 308 309 309 310 310 311 311 310 310 309 309 309 308 307 306 305 304 303 301
285 286 287 289 290 290 290 291 292 292 293 294 296 297 298 300 301 303 304 305 306 307 308 308 309 309 310 311 311 312 312 312 311 311 311 311 310 309 308 307 306 306 305 303
285 287 289 290 290 290 290 292 293 293 295 296 298 298 299 301 302 303 305 306 307 308 309 310 310 311 312 312 312 312 313 313 313 312 312 311 311 310 309 308 307 307 306 305
285 286 288 291 292 292 293 295 296 296 297 298 299 300 301 302 303 305 306 308 309 310 310 311 312 312 313 313 313 313 314 314 313 313 312 312 312 311 310 309 308 308 307 306
283 285 288 290 291 293 294 296 297 298 299 300 301 301 302 304 305 306 308 309 310 310 311 312 313 313 314 314 314 314 314 314 314 313 313 312 312 312 311 310 310 309 308 307
283 285 287 289 291 293 295 296 297 298 299 301 302 303 304 305 306 307 309 309 310 311 312 313 314 314 314 315 315 315 315 315 314 314 314 313 313 312 312 311 311 310 310 309
283 285 287 289 291 293 295 296 297 299 300 301 302 304 305 306 307 308 309 310 311 312 313 313 314 315 315 315 315 315 315 315 315 314 314 313 313 312 312 312 312 311 310 310
283 285 287 290 292 294 295 296 298 299 301 302 303 304 306 307 308 309 310 311 312 313 314 314 315 315 315 315 315 315 315 315 315 314 313 313 313 312 312 313 313 312 312 312
284 286 288 290 291 293 295 297 298 300 301 302 303 305 306 307 308 310 311 311 312 313 314 315 315 315 315 315 315 315 315 315 314 314 313 313 312 312 312 313 313 312 313 314
285 287 288 290 292 294 296 297 299 300 302 303 304 305 306 308 309 310 311 312 313 314 314 315 315 315 315 315 315 316 316 315 315 314 314 313 313 312 312 312 312 312 313 314
285 287 288 290 292 294 296 297 299 301 302 303 304 306 307 308 310 311 312 312 313 314 314 314 315 316 316 316 316 316 316 315 315 315 315 315 314 314 314 313 313 312 313 313
285 287 289 291 293 295 296 298 300 301 302 303 305 306 308 309 310 311 312 312 313 313 314 314 315 316 315 316 316 316 316 316 315 316 316 315 315 315 315 315 315 315 315 314
285 287 289 292 294 296 297 299 300 302 303 304 305 307 308 309 310 311 312 312 313 313 314 314 315 315 315 316 316 316 316 316 316 316 316 316 316 316 316 316 316 317 317 316
286 289 291 293 294 296 298 299 301 302 303 304 306 307 308 309 311 312 312 313 313 313 313 314 315 315 316 315 315 316 316 316 316 316 316 316 316 317 317 317 318 318 318 319
288 290 291 293 295 297 298 300 301 303 304 305 306 308 309 310 311 312 313 313 313 313 314 314 314 315 315 315 315 316 316 316 316 316 316 316 317 317 318 318 319 319 319 319
289 290 292 294 296 298 299 301 302 303 305 306 307 308 310 311 312 312 313 314 314 314 314 314 314 314 314 314 315 316 317 317 317 317 316 316 317 317 318 319 319 319 319 320
290 292 293 295 297 299 300 302 303 304 305 306 307 308 310 311 311 312 313 314 314 314 315 315 314 314 314 314 315 316 316 317 317 317 316 316 317 317 318 319 320 320 320 320
291 293 294 296 298 300 301 302 303 304 305 307 308 309 310 311 312 312 313 313 314 313 314 314 314 313 313 314 315 316 316 317 317 317 317 317 317 318 319 320 321 321 321 321
292 294 296 297 299 300 301 302 304 305 306 307 308 309 310 311 311 312 313 313 313 314 314 314 313 313 313 313 315 316 316 317 317 317 317 317 318 319 320 321 322 322 322 322
294 295 297 298 300 301 302 303 304 305 306 307 308 309 310 311 311 312 313 313 313 313 313 313 313 313 313 313 314 316 316 316 317 318 318 318 318 320 322 323 323 324 324 324
295 296 298 299 300 302 302 304 304 305 306 307 308 309 310 311 311 312 312 313 313 313 313 313 313 313 313 314 315 316 316 315 316 317 318 317 318 320 322 324 325 324 324 324
296 297 299 300 301 302 303 304 304 305 306 307 308 309 309 310 310 311 311 311 312 312 313 312 312 312 313 314 315 315 316 316 316 317 317 317 318 321 323 325 325 325 325 324
297 298 299 300 301 302 303 304 305 305 306 306 307 308 308 308 309 309 310 310 311 311 312 311 311 312 312 313 314 315 316 317 317 317 318 318 319 321 323 325 326 327 326 325
297 298 299 300 301 302 303 304 305 305 306 306 307 307 307 307 307 308 308 309 310 310 311 311 311 311 312 313 314 315 316 317 318 318 319 320 320 321 324 326 328 329 329 328
Height
5767 5764 5763 5762 5761 5758 5755 5752 5749 5748 5746 5743 5738 5734 5730 5726 5722 5718 5713 5707 5701 5695 5689 5682 5674 5666 5658 5649 5639 5630 5620 5609 5598 5587 5576 5564 5553 5542 5532 5521 5511 5501 5492 5483
5760 5757 5755 5754 5754 5750 5747 5744 5741 5739 5736 5733 5729 5725 5721 5716 5712 5707 5701 5696 5689 5682 5675 5667 5659 5650 5641 5632 5621 5611 5600 5589 5577 5566 5554 5542 5531 5520 5509 5499 5488 5478 5469 5461
5751 5750 5747 5747 5746 5743 5740 5737 5734 5730 5728 5723 5720 5716 5711 5706 5701 5695 5689 5683 5676 5668 5660 5651 5642 5633 5624 5614 5603 5592 5580 5568 5556 5544 5533 5521 5510 5499 5488 5477 5468 5459 5450 5441
5741 5741 5739 5741 5737 5734 5730 5728 5725 5721 5718 5714 5710 5705 5700 5695 5689 5683 5676 5669 5662 5653 5645 5635 5626 5616 5606 5595 5583 5572 5560 5548 5535 5523 5512 5501 5489 5478 5468 5458 5449 5440 5432 5424
5732 5730 5729 5731 5728 5724 5720 5718 5716 5712 5708 5704 5699 5695 5689 5683 5676 5670 5662 5655 5646 5637 5628 5618 5608 5598 5588 5576 5564 5552 5540 5528 5516 5503 5492 5481 5471 5460 5450 5440 5432 5424 5416 5408
5723 5720 5719 5721 5718 5714 5712 5709 5706 5701 5697 5693 5688 5683 5678 5671 5664 5656 5648 5640 5631 5621 5611 5601 5590 5579 5569 5557 5545 5533 5522 5510 5497 5484 5472 5462 5452 5443 5434 5424 5416 5409 5402 5394
5714 5710 5710 5710 5706 5703 5702 5699 5694 5690 5686 5681 5676 5670 5664 5657 5649 5641 5633 5624 5614 5604 5594 5583 5571 5561 5550 5538 5526 5515 5503 5491 5480 5467 5455 5445 5436 5427 5418 5410 5403 5395 5388 5382
5705 5702 5703 5699 5696 5693 5691 5687 5682 5678 5673 5668 5663 5656 5649 5642 5634 5626 5617 5608 5598 5588 5578 5566 5553 5542 5532 5521 5509 5498 5486 5475 5463 5452 5441 5430 5421 5413 5404 5396 5389 5382 5375 5370
5697 5696 5692 5688 5685 5682 5679 5675 5671 5666 5661 5655 5649 5642 5635 5627 5619 5610 5601 5591 5581 5571 5561 5550 5537 5524 5513 5502 5491 5480 5470 5458 5448 5437 5427 5417 5408 5399 5392 5384 5376 5370 5363 5357
5686 5684 5681 5678 5675 5671 5667 5663 5658 5653 5648 5641 5635 5628 5620 5612 5603 5594 5585 5575 5565 5555 5544 5534 5522 5509 5495 5484 5473 5463 5453 5443 5433 5423 5414 5405 5396 5387 5379 5372 5365 5358 5352 5346
5676 5673 5670 5667 5663 5660 5655 5651 5646 5640 5634 5627 5620 5613 5605 5596 5588 5578 5569 5559 5548 5537 5527 5516 5505 5493 5480 5468 5457 5447 5438 5428 5418 5409 5400 5393 5385 5376 5368 5361 5353 5346 5340 5335
5665 5663 5660 5656 5652 5648 5643 5638 5633 5627 5620 5613 5605 5598 5589 5581 5572 5562 5552 5542 5532 5521 5510 5499 5488 5477 5465 5453 5442 5431 5422 5413 5404 5396 5388 5380 5373 5367 5359 5350 5344 5336 5330 5324
5653 5651 5647 5644 5640 5635 5630 5625 5619 5613 5606 5598 5590 5582 5574 5565 5556 5546 5536 5525 5515 5504 5493 5482 5472 5461 5450 5439 5428 5417 5408 5399 5391 5383 5375 5367 5360 5354 5349 5343 5335 5328 5321 5315
5642 5639 5635 5631 5627 5622 5617 5611 5605 5598 5591 5583 5575 5567 5558 5549 5541 5530 5520 5509 5498 5488 5477 5466 5456 5446 5434 5424 5414 5404 5395 5386 5378 5370 5363 5356 5349 5343 5336 5331 5327 5321 5314 5307
5630 5626 5623 5618 5614 5608 5603 5597 5591 5584 5576 5568 5560 5551 5542 5533 5524 5515 5504 5492 5482 5472 5461 5451 5441 5431 5420 5410 5401 5392 5383 5375 5367 5360 5353 5346 5339 5333 5327 5321 5316 5311 5306 5300
5617 5613 5609 5605 5600 5594 5589 5582 5576 5569 5561 5553 5545 5536 5527 5517 5508 5498 5487 5476 5465 5456 5446 5435 5426 5416 5406 5397 5388 5380 5372 5364 5356 5350 5343 5337 5330 5324 5318 5313 5307 5302 5296 5291
5604 5600 5596 5591 5586 5580 5574 5567 5560 5553 5545 5537 5529 5520 5511 5501 5492 5483 5472 5461 5450 5439 5429 5419 5411 5402 5393 5384 5375 5368 5361 5354 5347 5340 5334 5328 5322 5316 5310 5305 5299 5294 5288 5283
5590 5586 5581 5576 5571 5565 5559 5552 5544 5536 5529 5520 5512 5503 5494 5484 5475 5466 5456 5446 5436 5426 5415 5405 5396 5388 5380 5372 5364 5358 5351 5344 5338 5331 5325 5320 5314 5308 5303 5297 5292 5287 5281 5276
5576 5571 5566 5561 5555 5549 5542 5535 5528 5520 5512 5503 5495 5487 5478 5468 5457 5448 5439 5429 5419 5411 5403 5393 5384 5376 5369 5361 5354 5348 5341 5335 5329 5323 5317 5312 5307 5301 5295 5290 5285 5279 5274 5269
5561 5556 5551 5545 5539 5532 5526 5519 5511 5504 5495 5486 5478 5469 5461 5452 5441 5432 5423 5414 5404 5394 5387 5379 5372 5365 5358 5352 5345 5339 5332 5326 5321 5315 5310 5305 5299 5294 5289 5283 5278 5273 5267 5262
5546 5541 5536 5530 5524 5517 5509 5502 5494 5487 5479 5470 5460 5452 5443 5435 5425 5416 5407 5400 5392 5382 5375 5367 5360 5353 5347 5342 5336 5330 5324 5318 5313 5307 5302 5297 5292 5287 5282 5277 5271 5266 5261 5256
5530 5525 5519 5513 5507 5501 5493 5485 5477 5469 5461 5453 5444 5434 5426 5418 5410 5402 5393 5384 5377 5370 5363 5356 5349 5343 5337 5332 5326 5321 5316 5310 5305 5300 5295 5290 5285 5280 5275 5270 5265 5260 5255 5250
5514 5508 5502 5496 5490 5483 5477 5468 5460 5452 5443 5435 5427 5418 5409 5402 5393 5386 5380 5373 5364 5358 5351 5345 5339 5333 5328 5323 5318 5313 5308 5303 5298 5293 5288 5284 5279 5274 5269 5265 5259 5254 5249 5244
5497 5491 5485 5479 5472 5465 5459 5452 5443 5435 5427 5418 5410 5401 5393 5386 5380 5372 5364 5359 5352 5346 5340 5335 5329 5324 5319 5314 5310 5305 5300 5296 5291 5287 5282 5277 5273 5268 5264 5259 5254 5249 5244 5239
5480 5474 5468 5461 5454 5447 5440 5433 5426 5419 5411 5403 5396 5387 5379 5371 5365 5360 5353 5347 5341 5336 5331 5325 5320 5315 5311 5306 5302 5298 5293 5289 5284 5280 5276 5271 5267 5263 5258 5254 5249 5244 5239 5234
5463 5457 5451 5444 5436 5428 5421 5415 5408 5402 5394 5388 5382 5374 5366 5359 5353 5347 5342 5336 5331 5326 5321 5316 5312 5308 5303 5299 5295 5291 5286 5282 5278 5273 5269 5266 5262 5258 5253 5248 5244 5239 5234 5229
5446 5439 5433 5427 5420 5411 5404 5398 5391 5385 5378 5371 5366 5361 5354 5347 5342 5336 5331 5326 5321 5317 5312 5308 5304 5300 5296 5292 5288 5284 5280 5276 5272 5268 5264 5260 5257 5253 5248 5244 5239 5234 5229 5225